This is the latest recevied weather packets stored in our database for station/object SP4MAZ-13. If no packets are shown the sender has not sent any weather packets the latest 10 day(s).
| Time | Temp. | Humidity | Pressure | Rain* | Wind** | Luminosity | Snow |
|---|---|---|---|---|---|---|---|
| 1777880445 | 23.89° C | 34% | 2147.4 hPa | - | - | - | - |
| 1777880142 | 23.89° C | 33% | 2147.4 hPa | - | - | - | - |
| 1777879839 | 23.33° C | 35% | 2147.4 hPa | - | - | - | - |
| 1777879535 | 22.78° C | 36% | 2147.4 hPa | - | - | - | - |
| 1777879231 | 22.78° C | 33% | 2147.4 hPa | - | - | - | - |
| 1777878928 | 22.78° C | 35% | 2147.4 hPa | - | - | - | - |
| 1777878625 | 22.22° C | 35% | 2147.4 hPa | - | - | - | - |
| 1777878321 | 22.22° C | 35% | 2147.4 hPa | - | - | - | - |
| 1777878018 | 21.67° C | 36% | 2147.4 hPa | - | - | - | - |
| 1777877715 | 21.11° C | 36% | 2147.4 hPa | - | - | - | - |
| 1777877411 | 21.11° C | 35% | 2147.4 hPa | - | - | - | - |
| 1777877109 | 21.67° C | 37% | 2147.4 hPa | - | - | - | - |
| 1777876805 | 21.11° C | 38% | 2147.4 hPa | - | - | - | - |
| 1777876502 | 20.56° C | 37% | 2147.4 hPa | - | - | - | - |
| 1777876198 | 20.56° C | 38% | 2147.4 hPa | - | - | - | - |
| 1777875894 | 20° C | 39% | 2147.4 hPa | - | - | - | - |
| 1777875591 | 20° C | 38% | 2147.4 hPa | - | - | - | - |
| 1777875288 | 20° C | 40% | 2147.4 hPa | - | - | - | - |
| 1777874984 | 19.44° C | 40% | 2147.4 hPa | - | - | - | - |
| 1777874681 | 18.89° C | 43% | 2147.4 hPa | - | - | - | - |
| 1777874377 | 18.33° C | 42% | 2147.4 hPa | - | - | - | - |
| 1777874073 | 18.33° C | 42% | 2147.4 hPa | - | - | - | - |
| 1777873770 | 18.89° C | 41% | 2147.4 hPa | - | - | - | - |
| 1777873467 | 19.44° C | 39% | 2147.4 hPa | - | - | - | - |
| 1777873163 | 19.44° C | 39% | 2147.4 hPa | - | - | - | - |
* Rain since midnight (hover to see other rain measurements)
** Current wind speed in m/s (hover to see current wind gust speed)